#�ϑ�����,���ϕ���,���ϕ���,�ő啗��,�ő啗����������,�ő�u�ԕ���,�ő�u�ԕ�����������
#(�N����),(m/s)   ,(16����),(m/s)   ,(16����)        ,(m/s)       ,(16����)            
2013/11/11 0:01,1.7,8,1.7,10,3.3,6
2013/11/11 0:02,1.6,7,1.7,10,2.2,3
2013/11/11 0:03,1.6,6,1.6,10,2.9,3
2013/11/11 0:04,1.7,6,1.7,9,3,3
2013/11/11 0:05,1.7,5,1.7,8,2.5,3
2013/11/11 0:06,1.7,5,1.7,8,1.6,2
2013/11/11 0:07,1.6,4,1.7,8,1,2
2013/11/11 0:08,1.5,4,1.6,8,1.3,6
2013/11/11 0:09,1.5,4,1.5,8,2.2,5
2013/11/11 0:10,1.4,3,1.5,8,1.9,3
2013/11/11 0:11,1.3,3,1.3,8,1.6,3
2013/11/11 0:12,1.2,3,1.3,6,1.6,3
2013/11/11 0:13,1.2,3,1.2,6,2.2,6
2013/11/11 0:14,1.1,4,1.2,6,1.9,6
2013/11/11 0:15,1.1,4,1.1,5,1.6,6
2013/11/11 0:16,1,4,1.1,4,1.6,4
2013/11/11 0:17,1,5,1,4,1.3,5
2013/11/11 0:18,1.1,5,1.1,4,1.1,5
2013/11/11 0:19,1,5,1.1,4,1.5,7
2013/11/11 0:20,1.1,5,1.1,3,1.9,6
2013/11/11 0:21,1,5,1.1,3,1,6
2013/11/11 0:22,0.9,5,1,3,1.1,16
2013/11/11 0:23,0.9,5,0.9,3,1.4,1
2013/11/11 0:24,0.9,4,0.9,4,1,16
2013/11/11 0:25,0.8,3,0.9,4,1,16
2013/11/11 0:26,0.7,3,0.8,5,0.1,3
2013/11/11 0:27,0.6,2,0.7,5,0.3,2
2013/11/11 0:28,0.6,2,0.6,5,0.9,1
2013/11/11 0:29,0.6,2,0.6,5,1.1,2
2013/11/11 0:30,0.6,1,0.6,5,1.9,2
2013/11/11 0:31,0.6,1,0.6,5,1.6,2
2013/11/11 0:32,0.7,1,0.7,5,2.5,1
2013/11/11 0:33,0.8,1,0.8,5,4.2,16
2013/11/11 0:34,1.1,1,1.1,1,5,16
2013/11/11 0:35,1.3,1,1.3,1,3.2,1
2013/11/11 0:36,1.5,1,1.5,1,3.5,2
2013/11/11 0:37,1.6,1,1.6,1,1.8,16
2013/11/11 0:38,1.7,1,1.7,1,2.1,1
2013/11/11 0:39,1.8,1,1.8,1,2.9,16
2013/11/11 0:40,1.9,1,1.9,1,3.1,1
2013/11/11 0:41,2,1,2,1,3,16
2013/11/11 0:42,2.1,1,2.1,1,2.9,2
2013/11/11 0:43,2.1,1,2.1,1,3.2,2
2013/11/11 0:44,1.8,1,2,1,1.5,2
2013/11/11 0:45,1.7,1,1.8,1,2.7,15
2013/11/11 0:46,1.6,1,1.6,1,3.7,1
2013/11/11 0:47,1.8,1,1.8,1,3.9,1
2013/11/11 0:48,1.9,1,1.9,1,3,1
2013/11/11 0:49,1.9,1,1.9,1,3.1,16
2013/11/11 0:50,1.8,1,1.9,1,2.9,15
2013/11/11 0:51,1.8,1,1.8,1,3,15
2013/11/11 0:52,1.9,16,1.9,1,3.8,16
2013/11/11 0:53,1.8,16,1.9,1,3,16
2013/11/11 0:54,1.9,16,1.9,1,2.5,15
2013/11/11 0:55,1.9,16,1.9,1,1.9,14
2013/11/11 0:56,1.8,16,1.9,1,1,13
2013/11/11 0:57,1.6,15,1.7,1,1,11
2013/11/11 0:58,1.4,15,1.5,1,0.8,10
2013/11/11 0:59,1.2,14,1.4,1,0.9,8
2013/11/11 1:00,1.1,13,1.2,1,0.5,9
2013/11/11 1:01,0.9,13,1.1,1,0.6,7
2013/11/11 1:02,0.8,12,0.9,16,1.5,16
2013/11/11 1:03,0.7,12,0.7,16,1.8,16
2013/11/11 1:04,0.6,12,0.7,16,1.3,16
2013/11/11 1:05,0.5,11,0.6,16,0.5,2
2013/11/11 1:06,0.5,2,0.5,16,1.1,16
2013/11/11 1:07,0.5,2,0.5,15,1.5,15
2013/11/11 1:08,0.6,1,0.6,15,2.5,16
2013/11/11 1:09,0.8,1,0.8,14,2.7,16
2013/11/11 1:10,1,1,1,13,2.4,1
2013/11/11 1:11,1.1,1,1.1,1,2,1
2013/11/11 1:12,1.1,16,1.1,1,2,13
2013/11/11 1:13,1.3,16,1.3,16,3.7,15
2013/11/11 1:14,1.4,16,1.4,16,3.7,16
2013/11/11 1:15,1.7,16,1.7,16,4.3,16
2013/11/11 1:16,1.9,16,1.9,16,3,16
2013/11/11 1:17,2,16,2,16,2.5,16
2013/11/11 1:18,2,16,2,16,4.5,15
2013/11/11 1:19,2,15,2,16,2.9,15
2013/11/11 1:20,2,15,2,16,2.5,14
2013/11/11 1:21,2,15,2,16,2.5,14
2013/11/11 1:22,2,15,2.1,15,2.9,14
2013/11/11 1:23,2,15,2,15,3.1,15
2013/11/11 1:24,1.9,15,2,15,2.9,15
2013/11/11 1:25,1.7,15,1.8,15,2.1,14
2013/11/11 1:26,1.6,15,1.7,15,1.5,15
2013/11/11 1:27,1.5,15,1.6,15,1.5,15
2013/11/11 1:28,1.4,15,1.5,15,1.5,2
2013/11/11 1:29,1.3,15,1.4,15,0.9,14
2013/11/11 1:30,1.2,15,1.3,15,1.9,15
2013/11/11 1:31,1.2,15,1.2,15,2.9,16
2013/11/11 1:32,1.2,15,1.2,15,3,15
2013/11/11 1:33,1.2,15,1.3,15,2,16
2013/11/11 1:34,1.1,15,1.2,15,2.1,16
2013/11/11 1:35,1,15,1.1,15,1.1,14
2013/11/11 1:36,1,15,1,15,1.6,9
2013/11/11 1:37,1,14,1,15,1.5,12
2013/11/11 1:38,1.1,14,1.1,15,3.3,14
2013/11/11 1:39,1.3,14,1.3,15,3.3,14
2013/11/11 1:40,1.3,13,1.3,15,1.5,8
2013/11/11 1:41,1.1,13,1.3,15,1,10
2013/11/11 1:42,1,13,1.1,15,1.9,16
2013/11/11 1:43,1,13,1,14,2.1,1
2013/11/11 1:44,1.1,13,1.1,14,3,16
2013/11/11 1:45,1.1,13,1.1,14,1.8,3
2013/11/11 1:46,1.1,14,1.1,14,1.6,3
2013/11/11 1:47,1,15,1.1,14,0.4,14
2013/11/11 1:48,0.9,15,1,14,2.5,16
2013/11/11 1:49,0.9,16,0.9,14,2.4,16
2013/11/11 1:50,0.9,16,0.9,13,2.2,16
2013/11/11 1:51,1,16,1,13,1.8,16
2013/11/11 1:52,1,16,1,13,2.9,16
2013/11/11 1:53,1.2,16,1.2,16,4.2,16
2013/11/11 1:54,1.2,16,1.2,16,2,14
2013/11/11 1:55,1.3,15,1.3,16,2.2,16
2013/11/11 1:56,1.3,15,1.3,16,1.5,13
2013/11/11 1:57,1.3,15,1.3,16,1.6,16
2013/11/11 1:58,1.3,15,1.3,16,2.5,1
2013/11/11 1:59,1.2,15,1.3,16,2.9,1
2013/11/11 2:00,1.4,15,1.4,15,3.7,16
2013/11/11 2:01,1.5,15,1.5,15,3.3,16
2013/11/11 2:02,1.5,16,1.6,15,2.7,16
2013/11/11 2:03,1.4,16,1.5,15,2.9,15
2013/11/11 2:04,1.5,16,1.5,15,3,1
2013/11/11 2:05,1.5,16,1.5,15,3.2,16
2013/11/11 2:06,1.6,16,1.6,15,2.1,16
2013/11/11 2:07,1.8,16,1.8,16,3.5,15
2013/11/11 2:08,1.9,16,1.9,16,3.2,15
2013/11/11 2:09,2.1,15,2.1,15,2.6,14
2013/11/11 2:10,2,15,2.1,15,2.6,16
2013/11/11 2:11,2,15,2,15,3.1,16
2013/11/11 2:12,1.9,15,2,15,3.1,15
2013/11/11 2:13,1.9,15,1.9,15,2.9,13
2013/11/11 2:14,2,14,2,15,4.5,14
2013/11/11 2:15,2.1,14,2.1,15,4.1,12
2013/11/11 2:16,2.2,14,2.2,14,4.7,12
2013/11/11 2:17,2.1,13,2.2,14,2.4,12
2013/11/11 2:18,2,13,2.1,14,2.7,9
2013/11/11 2:19,1.9,12,2,14,2.7,9
2013/11/11 2:20,1.8,12,1.9,14,2.7,10
2013/11/11 2:21,1.9,11,1.9,14,2.6,10
2013/11/11 2:22,1.9,11,1.9,14,2.6,11
2013/11/11 2:23,1.9,11,1.9,14,2.2,12
2013/11/11 2:24,1.7,11,1.9,14,2.4,10
2013/11/11 2:25,1.7,11,1.7,14,3.6,10
2013/11/11 2:26,1.6,10,1.7,14,2.4,12
2013/11/11 2:27,1.5,10,1.6,13,1.9,16
2013/11/11 2:28,1.5,11,1.5,13,2,14
2013/11/11 2:29,1.5,11,1.5,12,1.4,2
2013/11/11 2:30,1.4,11,1.5,11,1.1,3
2013/11/11 2:31,1.2,11,1.4,11,1.3,5
2013/11/11 2:32,1.2,9,1.2,11,1.8,8
2013/11/11 2:33,1.1,7,1.2,11,2.2,7
2013/11/11 2:34,1.2,8,1.2,11,2.9,13
2013/11/11 2:35,1.2,7,1.2,11,3.6,8
2013/11/11 2:36,1.2,7,1.2,10,3.8,10
2013/11/11 2:37,1.2,8,1.3,10,3.6,9
2013/11/11 2:38,1.2,8,1.2,11,2.1,15
2013/11/11 2:39,1.1,8,1.2,12,1,5
2013/11/11 2:40,1.1,9,1.1,12,0.6,5
2013/11/11 2:41,1.1,9,1.1,8,1.3,8
2013/11/11 2:42,1.1,9,1.1,8,1.8,8
2013/11/11 2:43,1.1,9,1.1,8,2.1,8
2013/11/11 2:44,1,8,1.1,8,1.6,7
2013/11/11 2:45,0.9,8,1,8,1.1,15
2013/11/11 2:46,0.7,8,0.9,8,0.8,10
2013/11/11 2:47,0.7,9,0.7,8,1,10
2013/11/11 2:48,0.7,10,0.7,8,0.9,12
2013/11/11 2:49,0.7,12,0.7,8,0.5,16
2013/11/11 2:50,0.8,12,0.8,9,1.3,12
2013/11/11 2:51,0.8,13,0.8,9,2.2,16
2013/11/11 2:52,0.8,13,0.8,9,2,12
2013/11/11 2:53,0.7,14,0.8,9,1.8,13
2013/11/11 2:54,0.7,14,0.7,8,2.1,10
2013/11/11 2:55,0.7,13,0.7,8,2.1,8
2013/11/11 2:56,0.8,13,0.8,12,3.9,11
2013/11/11 2:57,1.1,13,1.1,13,5.6,13
2013/11/11 2:58,1.3,13,1.3,13,4.2,15
2013/11/11 2:59,1.5,13,1.5,13,6.2,14
2013/11/11 3:00,1.9,13,1.9,13,6.9,13
2013/11/11 3:01,2,13,2,13,5.7,14
2013/11/11 3:02,2.4,13,2.4,13,7.8,15
2013/11/11 3:03,2.6,14,2.6,14,7.2,14
2013/11/11 3:04,2.9,14,2.9,14,8.1,16
2013/11/11 3:05,3.1,14,3.1,14,7.1,16
2013/11/11 3:06,3.3,15,3.3,14,5.8,15
2013/11/11 3:07,3.3,15,3.3,14,6.2,1
2013/11/11 3:08,3.5,15,3.5,15,8.3,1
2013/11/11 3:09,3.7,15,3.7,15,8.3,1
2013/11/11 3:10,3.9,15,3.9,15,11.5,15
2013/11/11 3:11,4.3,15,4.3,15,10.5,16
2013/11/11 3:12,4.4,15,4.4,15,10,16
2013/11/11 3:13,4.3,15,4.4,15,6.9,16
2013/11/11 3:14,4.2,15,4.2,15,6,16
2013/11/11 3:15,4.1,15,4.2,15,6.4,16
2013/11/11 3:16,4.1,15,4.1,15,5,2
2013/11/11 3:17,3.9,15,4.1,15,6.8,16
2013/11/11 3:18,3.9,15,4,15,8.1,16
2013/11/11 3:19,3.7,15,3.9,15,5,1
2013/11/11 3:20,3.4,15,3.7,15,7.2,16
2013/11/11 3:21,3.1,15,3.5,15,5.7,15
2013/11/11 3:22,3,15,3.2,15,5.8,15
2013/11/11 3:23,3.2,15,3.2,15,7.8,15
2013/11/11 3:24,3.4,15,3.4,15,8.4,13
2013/11/11 3:25,3.6,15,3.6,15,7.7,15
2013/11/11 3:26,3.6,14,3.6,15,3.8,13
2013/11/11 3:27,3.8,14,3.8,15,6.8,14
2013/11/11 3:28,3.7,14,3.8,15,7.1,12
2013/11/11 3:29,4,14,4,14,7.4,10
2013/11/11 3:30,3.9,13,4,14,6,12
2013/11/11 3:31,4,13,4,14,8.4,12
2013/11/11 3:32,4.1,13,4.1,13,7.8,14
2013/11/11 3:33,4.1,13,4.2,13,5.6,12
2013/11/11 3:34,3.9,12,4.1,13,5.1,12
2013/11/11 3:35,3.6,12,3.9,13,2.9,14
2013/11/11 3:36,3.6,12,3.6,13,3.1,15
2013/11/11 3:37,3.5,12,3.7,13,4.8,12
2013/11/11 3:38,3.5,12,3.5,13,5.4,14
2013/11/11 3:39,3.3,13,3.5,13,6.2,14
2013/11/11 3:40,3.2,13,3.3,13,5.4,14
2013/11/11 3:41,3.1,13,3.2,13,5.5,14
2013/11/11 3:42,2.9,13,3.1,13,5.1,13
2013/11/11 3:43,2.6,13,2.9,13,3.3,16
2013/11/11 3:44,2.3,13,2.6,12,1.5,16
2013/11/11 3:45,2.2,13,2.3,12,1.9,16
2013/11/11 3:46,2.2,13,2.2,12,2.6,8
2013/11/11 3:47,2,13,2.1,12,3,7
2013/11/11 3:48,1.9,13,2,12,2.1,12
2013/11/11 3:49,1.6,13,1.8,13,2.5,3
2013/11/11 3:50,1.6,13,1.6,13,3.6,16
2013/11/11 3:51,1.4,14,1.6,13,2.5,1
2013/11/11 3:52,1.1,16,1.3,13,1.8,1
2013/11/11 3:53,1.1,1,1.1,13,1,1
2013/11/11 3:54,1.1,16,1.1,13,1.9,9
2013/11/11 3:55,1.1,16,1.1,13,2.4,14
2013/11/11 3:56,1.1,16,1.1,13,3,14
2013/11/11 3:57,1.2,16,1.2,13,3.6,1
2013/11/11 3:58,1.3,16,1.3,13,3.1,15
2013/11/11 3:59,1.6,16,1.6,13,7.1,15
2013/11/11 4:00,1.9,16,1.9,16,8.1,14
2013/11/11 4:01,2.1,15,2.1,15,6.5,12
2013/11/11 4:02,2.4,15,2.4,15,7.8,12
2013/11/11 4:03,2.7,14,2.7,14,5.8,15
2013/11/11 4:04,3.1,14,3.1,14,6.1,15
2013/11/11 4:05,3.3,15,3.3,15,5.8,15
2013/11/11 4:06,3.4,15,3.4,15,3.3,13
2013/11/11 4:07,3.4,14,3.4,15,5.1,12
2013/11/11 4:08,3.5,14,3.5,14,4.3,12
2013/11/11 4:09,3.3,14,3.5,14,3.1,15
2013/11/11 4:10,2.9,14,3.2,14,1.6,15
2013/11/11 4:11,2.8,14,2.9,14,3.7,8
2013/11/11 4:12,2.5,15,2.7,14,3.6,16
2013/11/11 4:13,2.4,15,2.5,14,3.9,15
2013/11/11 4:14,2.2,15,2.4,14,4.2,13
2013/11/11 4:15,2,14,2.2,14,2.6,15
2013/11/11 4:16,1.9,15,2,14,3.3,16
2013/11/11 4:17,2,15,2,14,3.9,14
2013/11/11 4:18,1.8,15,2,14,2.5,1
2013/11/11 4:19,1.9,16,1.9,14,5.1,3
2013/11/11 4:20,2,15,2,14,5,12
2013/11/11 4:21,2.1,15,2.2,14,5.4,12
2013/11/11 4:22,2.2,14,2.2,15,3.1,9
2013/11/11 4:23,2,14,2.2,15,2.4,10
2013/11/11 4:24,1.8,15,2,14,2.4,10
2013/11/11 4:25,1.8,14,1.8,15,2.6,15
2013/11/11 4:26,1.8,13,1.8,15,3.1,13
2013/11/11 4:27,1.6,11,1.7,15,2,14
2013/11/11 4:28,1.6,12,1.7,15,2.6,13
2013/11/11 4:29,1.5,12,1.6,15,3.6,14
2013/11/11 4:30,1.6,12,1.7,15,4.7,15
2013/11/11 4:31,2.1,13,2.1,15,10.6,16
2013/11/11 4:32,2.4,13,2.4,13,9.4,13
2013/11/11 4:33,2.5,14,2.5,13,5.2,13
2013/11/11 4:34,2.9,14,2.9,14,6.2,14
2013/11/11 4:35,3.1,14,3.1,14,6,15
2013/11/11 4:36,3.5,14,3.5,14,8.7,14
2013/11/11 4:37,3.7,14,3.8,14,8.2,14
2013/11/11 4:38,3.9,14,3.9,14,6.5,16
2013/11/11 4:39,3.8,14,3.9,14,3.5,16
2013/11/11 4:40,3.7,15,3.8,14,3.3,15
2013/11/11 4:41,3.2,15,3.6,14,4.4,16
2013/11/11 4:42,3.1,15,3.2,14,7.4,16
2013/11/11 4:43,3.3,15,3.3,14,7.5,15
2013/11/11 4:44,3,15,3.3,14,3.8,14
2013/11/11 4:45,2.9,15,3,14,3.9,16
2013/11/11 4:46,2.8,15,2.9,14,14.1,15
2013/11/11 4:47,3.2,15,3.2,14,11.6,15
2013/11/11 4:48,3.5,15,3.5,14,10.5,16
2013/11/11 4:49,3.8,15,3.8,14,8.6,15
2013/11/11 4:50,4.3,15,4.3,15,9.4,16
2013/11/11 4:51,4.7,15,4.7,15,9.4,16
2013/11/11 4:52,5,16,5,16,12.6,15
2013/11/11 4:53,5.1,16,5.1,16,10,15
2013/11/11 4:54,5.6,16,5.6,16,11,15
2013/11/11 4:55,5.9,16,5.9,16,10.9,16
2013/11/11 4:56,6.2,16,6.2,16,10.9,15
2013/11/11 4:57,5.9,16,6.2,16,11.8,1
2013/11/11 4:58,5.7,16,5.9,16,6.3,15
2013/11/11 4:59,5.7,16,5.8,16,10.2,15
2013/11/11 5:00,5.5,16,5.7,16,6.8,16
2013/11/11 5:01,5,15,5.4,16,2.6,15
2013/11/11 5:02,4.5,15,5,16,1.9,13
2013/11/11 5:03,4.1,15,4.4,16,3.8,10
2013/11/11 5:04,3.6,14,4,16,2.7,11
2013/11/11 5:05,3.2,14,3.6,16,4.3,12
2013/11/11 5:06,2.8,13,3.2,16,3.8,11
2013/11/11 5:07,2.4,13,2.7,16,2.9,7
2013/11/11 5:08,2.2,13,2.3,16,2.6,12
2013/11/11 5:09,1.9,12,2.1,16,4.3,10
2013/11/11 5:10,1.6,11,1.9,15,3.7,10
2013/11/11 5:11,1.9,11,1.9,15,6.3,12
2013/11/11 5:12,2,11,2,15,5.2,12
2013/11/11 5:13,2,11,2,15,4.1,12
2013/11/11 5:14,2.2,12,2.2,14,6.3,13
2013/11/11 5:15,2.4,12,2.4,14,6,13
2013/11/11 5:16,2.4,12,2.4,13,4.3,15
2013/11/11 5:17,2.4,12,2.4,12,3.8,14
2013/11/11 5:18,2.5,12,2.5,12,3,13
2013/11/11 5:19,2.5,12,2.5,12,4.9,10
2013/11/11 5:20,2.6,12,2.6,12,5.4,13
2013/11/11 5:21,2.8,12,2.8,12,7.9,12
2013/11/11 5:22,2.8,12,2.9,12,5,13
2013/11/11 5:23,2.8,12,2.8,12,2.6,12
2013/11/11 5:24,2.8,12,2.8,12,7.5,10
2013/11/11 5:25,2.8,12,2.8,12,6.7,9
2013/11/11 5:26,3,12,3,12,6.5,11
2013/11/11 5:27,3,12,3,12,5,10
2013/11/11 5:28,3.1,11,3.1,11,5.1,12
2013/11/11 5:29,3.2,11,3.2,11,5,11
2013/11/11 5:30,3.2,12,3.2,11,4.2,11
2013/11/11 5:31,3,11,3.2,11,6,10
2013/11/11 5:32,3,11,3,11,5.8,12
2013/11/11 5:33,3.1,11,3.2,11,4.8,10
2013/11/11 5:34,3.1,11,3.2,11,5.5,13
2013/11/11 5:35,3.1,12,3.2,11,4.5,14
2013/11/11 5:36,2.8,12,3,11,2.9,14
2013/11/11 5:37,2.6,12,2.8,11,1.5,15
2013/11/11 5:38,2.4,12,2.6,11,0.9,1
2013/11/11 5:39,2.3,13,2.4,11,3.7,12
2013/11/11 5:40,2.3,12,2.3,12,5.6,12
2013/11/11 5:41,2.3,13,2.4,11,4.8,12
2013/11/11 5:42,2.2,13,2.3,11,3.6,11
2013/11/11 5:43,2,13,2.2,11,1.9,15
2013/11/11 5:44,1.9,13,2,11,4.7,10
2013/11/11 5:45,1.8,13,1.9,12,3.2,10
2013/11/11 5:46,1.8,12,1.8,12,2.9,13
2013/11/11 5:47,2,12,2,12,5.2,12
2013/11/11 5:48,2.2,12,2.2,12,3.7,12
2013/11/11 5:49,2.4,12,2.4,13,4.3,12
2013/11/11 5:50,2.4,12,2.4,13,4.5,13
2013/11/11 5:51,2.2,12,2.3,12,2.2,11
2013/11/11 5:52,2.2,12,2.2,12,3.1,13
2013/11/11 5:53,2.3,12,2.3,12,3.8,14
2013/11/11 5:54,2.3,12,2.4,12,3.9,12
2013/11/11 5:55,2.3,12,2.3,12,3.1,12
2013/11/11 5:56,2.4,12,2.4,12,5.4,12
2013/11/11 5:57,2.4,12,2.5,12,4.9,12
2013/11/11 5:58,2.4,12,2.4,12,3.9,9
2013/11/11 5:59,2.2,12,2.4,12,4.5,10
2013/11/11 6:00,2.2,12,2.2,12,3.5,13
2013/11/11 6:01,2.3,12,2.4,12,5.1,12
2013/11/11 6:02,2.4,12,2.4,12,3.3,12
2013/11/11 6:03,2.4,12,2.4,12,4.1,11
2013/11/11 6:04,2.3,12,2.4,12,2.9,9
2013/11/11 6:05,2.3,12,2.3,12,3.5,12
2013/11/11 6:06,2.4,12,2.4,12,5.2,13
2013/11/11 6:07,2.4,12,2.4,12,3.9,12
2013/11/11 6:08,2.6,12,2.6,12,5.8,12
2013/11/11 6:09,2.7,12,2.7,12,5.7,12
2013/11/11 6:10,2.8,12,2.8,12,4.4,13
2013/11/11 6:11,2.8,12,2.8,12,6.4,12
2013/11/11 6:12,3,12,3,12,5.7,14
2013/11/11 6:13,3,13,3,12,4.8,12
2013/11/11 6:14,3.1,13,3.1,13,4.9,12
2013/11/11 6:15,3.3,13,3.3,13,4.2,13
2013/11/11 6:16,3.2,13,3.3,13,4.1,12
2013/11/11 6:17,3.2,13,3.2,13,3.5,14
2013/11/11 6:18,2.9,13,3.2,13,2.1,10
2013/11/11 6:19,2.6,13,2.8,13,1.5,12
2013/11/11 6:20,2.4,13,2.6,13,2.6,1
2013/11/11 6:21,2,13,2.3,13,1.3,12
2013/11/11 6:22,1.8,13,2,13,3.3,14
2013/11/11 6:23,1.7,14,1.8,13,3.8,16
2013/11/11 6:24,1.6,14,1.7,13,3.2,16
2013/11/11 6:25,1.4,14,1.5,13,2.6,14
2013/11/11 6:26,1.2,15,1.3,13,3.1,14
2013/11/11 6:27,1.3,15,1.3,13,3,16
2013/11/11 6:28,1.3,15,1.3,13,3.3,16
2013/11/11 6:29,1.6,15,1.6,13,3.8,15
2013/11/11 6:30,1.8,15,1.8,13,5.4,16
2013/11/11 6:31,2.1,15,2.1,15,4.9,15
2013/11/11 6:32,2.2,15,2.3,15,4.4,15
2013/11/11 6:33,2.3,15,2.3,15,4.4,15
2013/11/11 6:34,2.3,15,2.3,15,3.9,16
2013/11/11 6:35,2.2,15,2.3,15,2.1,16
2013/11/11 6:36,2.2,15,2.3,15,3.5,1
2013/11/11 6:37,2.3,15,2.3,15,4.3,1
2013/11/11 6:38,2.3,15,2.3,15,3.7,15
2013/11/11 6:39,2.3,15,2.3,15,3.8,12
2013/11/11 6:40,2.2,15,2.3,15,4.4,15
2013/11/11 6:41,2.1,15,2.2,15,4.7,12
2013/11/11 6:42,2,14,2.1,15,3.2,14
2013/11/11 6:43,2.1,14,2.1,15,4.3,14
2013/11/11 6:44,2.1,14,2.1,15,5,12
2013/11/11 6:45,2.2,14,2.3,15,4.2,14
2013/11/11 6:46,2.1,14,2.2,15,2.5,1
2013/11/11 6:47,2.1,14,2.1,15,4.8,16
2013/11/11 6:48,2.2,14,2.2,15,4.4,15
2013/11/11 6:49,2.2,14,2.2,15,3.8,15
2013/11/11 6:50,2.2,14,2.2,14,3.3,15
2013/11/11 6:51,2.1,14,2.2,14,3.1,14
2013/11/11 6:52,2.1,15,2.1,14,3.3,13
2013/11/11 6:53,2,15,2.1,14,3.3,13
2013/11/11 6:54,1.8,15,2,14,2.2,15
2013/11/11 6:55,1.8,15,1.8,14,2.9,1
2013/11/11 6:56,2,15,2,14,4.5,15
2013/11/11 6:57,2,15,2.1,14,3.7,14
2013/11/11 6:58,2,15,2.1,14,5.6,15
2013/11/11 6:59,1.9,14,1.9,14,3,15
2013/11/11 7:00,1.9,14,1.9,14,4.2,15
2013/11/11 7:01,1.9,15,1.9,15,3.5,15
2013/11/11 7:02,1.9,15,2,15,2.7,13
2013/11/11 7:03,1.8,15,1.9,15,2.2,1
2013/11/11 7:04,1.9,15,1.9,15,3.9,14
2013/11/11 7:05,2.1,15,2.1,15,5.7,15
2013/11/11 7:06,2.3,15,2.3,15,6.2,16
2013/11/11 7:07,2.5,15,2.5,15,6,15
2013/11/11 7:08,2.6,15,2.6,15,4.4,14
2013/11/11 7:09,2.7,15,2.7,15,4.2,14
2013/11/11 7:10,2.7,15,2.7,15,3.9,15
2013/11/11 7:11,2.7,15,2.8,15,3.8,16
2013/11/11 7:12,2.8,15,2.8,15,3.2,16
2013/11/11 7:13,2.8,15,2.8,15,2.7,15
2013/11/11 7:14,2.8,15,2.8,15,3,11
2013/11/11 7:15,2.7,15,2.7,15,4.4,13
2013/11/11 7:16,2.5,14,2.6,15,4.7,13
2013/11/11 7:17,2.3,14,2.5,15,4.2,16
2013/11/11 7:18,2.4,14,2.4,15,6.1,12
2013/11/11 7:19,2.4,14,2.4,15,5,11
2013/11/11 7:20,2.4,13,2.4,15,4.3,13
2013/11/11 7:21,2.4,13,2.4,15,5,13
2013/11/11 7:22,2.6,13,2.6,15,6.8,12
2013/11/11 7:23,2.7,13,2.7,15,4.4,13
2013/11/11 7:24,2.8,13,2.8,13,4.1,11
2013/11/11 7:25,2.9,13,2.9,13,6.1,13
2013/11/11 7:26,2.8,13,3,13,5,13
2013/11/11 7:27,2.8,13,2.8,13,3.6,1
2013/11/11 7:28,2.6,13,2.8,13,4.3,15
2013/11/11 7:29,2.6,13,2.6,13,5.7,14
2013/11/11 7:30,2.7,13,2.7,13,4.7,12
2013/11/11 7:31,2.7,13,2.7,13,3.9,11
2013/11/11 7:32,2.5,13,2.7,13,3.8,11
2013/11/11 7:33,2.5,13,2.5,13,3.2,13
2013/11/11 7:34,2.5,13,2.5,13,3.7,13
2013/11/11 7:35,2.5,13,2.5,13,5.4,12
2013/11/11 7:36,2.6,13,2.6,13,5,14
2013/11/11 7:37,2.8,13,2.8,13,6,16
2013/11/11 7:38,2.8,13,2.8,13,4.3,15
2013/11/11 7:39,2.6,14,2.8,13,2.4,15
2013/11/11 7:40,2.4,14,2.5,13,1.6,9
2013/11/11 7:41,2.2,14,2.4,13,1.1,8
2013/11/11 7:42,2.1,14,2.2,13,3.8,12
2013/11/11 7:43,2.3,14,2.3,13,5.8,13
2013/11/11 7:44,2.3,14,2.3,13,4.8,12
2013/11/11 7:45,2.2,14,2.3,13,3.9,12
2013/11/11 7:46,2.2,14,2.2,13,5.1,14
2013/11/11 7:47,2.1,13,2.2,13,3.7,12
2013/11/11 7:48,2.3,13,2.3,14,5.1,14
2013/11/11 7:49,2.5,13,2.5,14,5.7,13
2013/11/11 7:50,2.7,13,2.7,13,5.1,14
2013/11/11 7:51,2.9,13,2.9,13,4.8,15
2013/11/11 7:52,2.9,13,3,13,4.9,15
2013/11/11 7:53,2.6,13,2.9,13,1.9,16
2013/11/11 7:54,2.5,13,2.6,13,2.1,15
2013/11/11 7:55,2.5,13,2.5,13,3.9,14
2013/11/11 7:56,2.4,13,2.5,13,3.6,12
2013/11/11 7:57,2.2,13,2.3,13,2,15
2013/11/11 7:58,2.1,13,2.2,13,3.9,12
2013/11/11 7:59,2,13,2.1,13,3.6,13
2013/11/11 8:00,1.8,13,2,13,3,13
2013/11/11 8:01,1.6,13,1.8,13,1.5,12
2013/11/11 8:02,1.6,13,1.6,13,1.9,14
2013/11/11 8:03,1.5,13,1.6,13,1.1,16
2013/11/11 8:04,1.5,13,1.5,13,1.6,15
2013/11/11 8:05,1.3,13,1.5,13,1.8,14
2013/11/11 8:06,1.3,14,1.3,13,3.1,16
2013/11/11 8:07,1.3,14,1.3,13,1.5,15
2013/11/11 8:08,1,14,1.3,13,1.3,14
2013/11/11 8:09,1,14,1.1,13,3.6,13
2013/11/11 8:10,1.2,14,1.2,13,4.1,11
2013/11/11 8:11,1.3,14,1.3,13,6.5,13
2013/11/11 8:12,1.6,14,1.6,13,6.4,14
2013/11/11 8:13,1.8,14,1.8,14,3.6,14
2013/11/11 8:14,1.9,14,1.9,14,3.8,12
2013/11/11 8:15,2.1,14,2.1,14,4.2,13
2013/11/11 8:16,2.2,13,2.2,14,4.5,12
2013/11/11 8:17,2.3,13,2.3,13,3,13
2013/11/11 8:18,2.6,13,2.6,13,6.5,12
2013/11/11 8:19,2.6,13,2.7,13,4.1,14
2013/11/11 8:20,2.6,13,2.6,13,3.8,11
2013/11/11 8:21,2.5,13,2.6,13,3,10
2013/11/11 8:22,2.2,12,2.4,13,2.4,10
2013/11/11 8:23,2.3,12,2.3,13,4.4,11
2013/11/11 8:24,2.4,12,2.4,13,5.8,9
2013/11/11 8:25,2.4,12,2.4,13,4.2,10
2013/11/11 8:26,2.4,11,2.4,13,3.5,10
2013/11/11 8:27,2.4,11,2.4,13,5.2,9
2013/11/11 8:28,2.5,11,2.5,13,5.6,10
2013/11/11 8:29,2.5,10,2.5,13,4.5,10
2013/11/11 8:30,2.6,10,2.6,13,4.9,9
2013/11/11 8:31,2.7,10,2.7,10,4.4,10
2013/11/11 8:32,2.9,10,2.9,10,3.9,10
2013/11/11 8:33,2.9,10,2.9,10,4.2,10
2013/11/11 8:34,2.8,10,2.8,10,4.7,11
2013/11/11 8:35,2.8,10,2.9,10,4.8,10
2013/11/11 8:36,2.8,10,2.8,10,4.3,11
2013/11/11 8:37,3,10,3,10,7.4,8
2013/11/11 8:38,2.9,11,3,10,7.1,10
2013/11/11 8:39,2.9,10,2.9,10,6.2,10
2013/11/11 8:40,3,10,3,10,6.1,10
2013/11/11 8:41,3.1,10,3.1,10,6.7,10
2013/11/11 8:42,3,11,3.1,10,4.4,10
2013/11/11 8:43,2.8,11,3,10,2.5,14
2013/11/11 8:44,2.7,11,2.8,10,2.6,10
2013/11/11 8:45,2.7,11,2.7,10,6.3,10
2013/11/11 8:46,2.8,10,2.8,10,6,10
2013/11/11 8:47,2.7,10,2.8,10,5.2,11
2013/11/11 8:48,2.5,11,2.7,10,2.7,10
2013/11/11 8:49,2.5,11,2.5,10,4.8,12
2013/11/11 8:50,2.4,11,2.5,10,5.4,13
2013/11/11 8:51,2.3,12,2.4,10,5.5,14
2013/11/11 8:52,2.3,11,2.3,11,3.7,10
2013/11/11 8:53,2.4,11,2.4,11,4.9,9
2013/11/11 8:54,2.7,11,2.7,11,6.2,11
2013/11/11 8:55,2.8,11,2.9,11,7.6,9
2013/11/11 8:56,2.8,11,2.8,11,3.8,10
2013/11/11 8:57,2.6,11,2.7,11,3.1,13
2013/11/11 8:58,2.7,11,2.7,11,3.5,11
2013/11/11 8:59,2.7,11,2.8,11,5.4,9
2013/11/11 9:00,2.7,11,2.8,11,4.5,9
2013/11/11 9:01,2.5,11,2.7,11,4.5,12
2013/11/11 9:02,2.4,11,2.4,11,1.6,11
2013/11/11 9:03,2.3,11,2.4,11,2.4,16
2013/11/11 9:04,2,11,2.3,11,3.3,12
2013/11/11 9:05,2,12,2,11,4.5,13
2013/11/11 9:06,2,12,2,11,3.9,13
2013/11/11 9:07,2,12,2,11,3.2,13
2013/11/11 9:08,1.9,12,2,11,2.7,12
2013/11/11 9:09,1.8,13,1.9,11,2.7,12
2013/11/11 9:10,1.8,13,1.8,11,4.4,14
2013/11/11 9:11,1.8,13,1.8,11,2.5,16
2013/11/11 9:12,1.8,13,1.8,11,1.8,10
2013/11/11 9:13,1.9,12,1.9,11,3.3,12
2013/11/11 9:14,1.9,12,1.9,11,4.4,10
2013/11/11 9:15,1.9,12,1.9,12,3.8,11
2013/11/11 9:16,1.8,12,1.9,12,3.1,11
2013/11/11 9:17,1.7,13,1.8,12,1.4,2
2013/11/11 9:18,1.7,13,1.7,12,2.7,14
2013/11/11 9:19,1.6,13,1.7,12,3,16
2013/11/11 9:20,1.5,13,1.6,12,3,1
2013/11/11 9:21,1.6,14,1.6,12,2.9,4
2013/11/11 9:22,1.8,15,1.8,12,6.2,16
2013/11/11 9:23,1.9,15,1.9,12,5,1
2013/11/11 9:24,2,16,2,16,6.4,16
2013/11/11 9:25,2.1,16,2.1,16,6.3,15
2013/11/11 9:26,2,16,2,16,2.4,15
2013/11/11 9:27,2.1,16,2.1,16,2.5,16
2013/11/11 9:28,2.3,16,2.3,16,5.6,16
2013/11/11 9:29,2.5,16,2.5,16,5.8,16
2013/11/11 9:30,2.7,16,2.7,16,5.7,16
2013/11/11 9:31,2.9,16,2.9,16,6.3,16
2013/11/11 9:32,2.8,16,3,16,4.3,15
2013/11/11 9:33,2.8,16,2.8,16,5,2
2013/11/11 9:34,2.7,16,2.8,16,4.3,16
2013/11/11 9:35,2.6,16,2.7,16,4.3,16
2013/11/11 9:36,2.8,16,2.8,16,6.3,16
2013/11/11 9:37,2.9,16,2.9,16,3.5,16
2013/11/11 9:38,2.8,16,2.9,16,4.3,14
2013/11/11 9:39,2.6,16,2.8,16,3.1,4
2013/11/11 9:40,2.3,16,2.6,16,3.9,16
2013/11/11 9:41,2.1,16,2.3,16,3.9,1
2013/11/11 9:42,2,1,2.1,16,3.6,3
2013/11/11 9:43,2,1,2,16,3.2,16
2013/11/11 9:44,1.8,1,2,16,2.6,10
2013/11/11 9:45,1.7,1,1.8,16,3.1,10
2013/11/11 9:46,1.7,2,1.8,16,3.7,7
2013/11/11 9:47,1.7,3,1.7,16,3.8,7
2013/11/11 9:48,1.5,6,1.7,16,3.6,12
2013/11/11 9:49,1.5,8,1.5,16,3.9,10
2013/11/11 9:50,1.7,9,1.7,16,4.8,10
2013/11/11 9:51,1.6,10,1.7,16,1.4,11
2013/11/11 9:52,1.5,10,1.6,1,0.8,16
2013/11/11 9:53,1.4,10,1.5,1,1.9,9
2013/11/11 9:54,1.5,9,1.5,1,3.2,3
2013/11/11 9:55,1.5,8,1.5,1,2.6,3
2013/11/11 9:56,1.5,7,1.5,2,3.7,4
2013/11/11 9:57,1.4,5,1.4,3,2.1,3
2013/11/11 9:58,1.4,5,1.4,9,2.2,10
2013/11/11 9:59,1.5,5,1.5,9,3.5,12
2013/11/11 10:00,1.6,5,1.6,9,4.8,11
2013/11/11 10:01,1.7,6,1.7,6,3.2,11
2013/11/11 10:02,1.8,7,1.8,7,2,9
2013/11/11 10:03,1.8,7,1.8,7,1,8
2013/11/11 10:04,1.7,8,1.8,7,2.5,10
2013/11/11 10:05,1.8,9,1.8,7,5.1,10
2013/11/11 10:06,1.8,9,1.8,7,3.6,10
2013/11/11 10:07,1.8,9,1.8,7,2.4,12
2013/11/11 10:08,1.8,10,1.8,7,4.3,12
2013/11/11 10:09,1.9,10,1.9,10,5.4,12
2013/11/11 10:10,1.8,9,1.9,10,5.2,9
2013/11/11 10:11,2,10,2,9,5.4,9
2013/11/11 10:12,2.1,10,2.1,10,3.7,10
2013/11/11 10:13,2.3,10,2.3,10,4.9,9
2013/11/11 10:14,2.5,10,2.5,10,5.1,11
2013/11/11 10:15,2.6,10,2.6,10,5.6,11
2013/11/11 10:16,2.7,10,2.7,10,5.6,10
2013/11/11 10:17,2.9,11,2.9,11,5.7,9
2013/11/11 10:18,3.1,10,3.1,11,5.4,9
2013/11/11 10:19,3.1,10,3.1,11,3.7,11
2013/11/11 10:20,2.9,11,3.1,11,2.6,11
2013/11/11 10:21,2.8,11,2.9,11,2.7,13
2013/11/11 10:22,2.6,11,2.7,11,2.4,14
2013/11/11 10:23,2.5,11,2.6,11,3,11
2013/11/11 10:24,2.4,11,2.5,11,3.7,8
2013/11/11 10:25,2.3,12,2.4,11,3.7,16
2013/11/11 10:26,2,12,2.3,11,3,15
2013/11/11 10:27,1.8,13,2,11,1.1,2
2013/11/11 10:28,1.5,13,1.8,10,1.3,5
2013/11/11 10:29,1.3,14,1.5,10,1.6,13
2013/11/11 10:30,1.3,13,1.3,11,2.7,9
2013/11/11 10:31,1.5,13,1.5,11,5.2,11
2013/11/11 10:32,1.5,13,1.5,11,3.3,9
2013/11/11 10:33,1.5,13,1.5,11,2.5,12
2013/11/11 10:34,1.5,12,1.5,11,2.2,10
2013/11/11 10:35,1.3,11,1.5,12,3.2,10
2013/11/11 10:36,1.4,11,1.4,12,2.6,11
2013/11/11 10:37,1.4,11,1.4,13,1.6,6
2013/11/11 10:38,1.5,11,1.5,13,1.9,14
2013/11/11 10:39,1.6,11,1.6,11,3.1,9
2013/11/11 10:40,1.6,11,1.6,11,3.2,10
2013/11/11 10:41,1.5,11,1.6,11,3.6,9
2013/11/11 10:42,1.4,11,1.4,11,1.5,9
2013/11/11 10:43,1.4,11,1.4,11,3,9
2013/11/11 10:44,1.5,11,1.5,11,3.2,11
2013/11/11 10:45,1.4,12,1.5,11,1.9,14